KD4KKF Weather Reports


time (UTC)temp
C
wind
direction
speed
KPH
gust
KPH
rain 1hr
cm
rain 24hr
cm
rain mn
cm
humidity
%
barometer
mb
20260906082048 23 149 0.0 0.0 0.00 0.00 0.00 99 1011.6
20260906081544 23 156 0.0 0.0 0.00 0.00 0.00 99 1011.5
20260906081039 23 123 0.0 0.0 0.00 0.00 0.00 99 1011.5
20260906080536 23 113 0.0 0.0 0.00 0.00 0.00 99 1011.5
20260906080031 23 82 0.0 0.0 0.00 0.00 0.00 99 1011.7
20260906075526 23 143 0.0 0.0 0.00 0.00 0.00 99 1011.7
20260906075021 23 168 0.0 0.0 0.00 0.00 0.00 99 1011.7
20260906074515 23 158 0.0 0.0 0.00 0.00 0.00 99 1011.7
20260906074014 23 161 0.0 0.0 0.00 0.00 0.00 99 1011.6
20260906073509 23 175 0.0 0.0 0.00 0.00 0.00 99 1011.8
20260906073005 23 147 0.0 0.0 0.00 0.00 0.00 99 1011.4
20260906072500 23 72 0.0 0.0 0.00 0.00 0.00 99 1011.9
20260906071956 23 117 0.0 0.0 0.00 0.00 0.00 99 1011.7
20260906071452 23 175 0.0 0.0 0.00 0.00 0.00 99 1011.6
20260906070947 23 176 0.0 0.0 0.00 0.00 0.00 99 1011.4
20260906070442 23 176 0.0 0.0 0.00 0.00 0.00 99 1011.1
20260906065938 23 177 0.0 0.0 0.00 0.00 0.00 99 1011.4
20260906065432 23 176 0.0 0.0 0.00 0.00 0.00 99 1011.4
20260906064928 23 178 0.0 0.0 0.00 0.00 0.00 99 1011.4
20260906064424 23 175 0.0 0.0 0.00 0.00 0.00 99 1011.3
20260906063919 23 172 0.0 0.0 0.00 0.00 0.00 99 1011.4
20260906063414 23 172 0.0 0.0 0.00 0.00 0.00 99 1011.3
20260906062909 23 173 0.0 0.0 0.00 0.00 0.00 99 1011.3
20260906062408 23 173 0.0 0.0 0.00 0.00 0.00 99 1011.3
20260906061903 23 174 0.0 0.0 0.00 0.00 0.00 99 1011.2
20260906061400 23 171 0.0 0.0 0.00 0.00 0.00 99 1011.3
20260906060854 23 172 0.0 0.0 0.00 0.00 0.00 99 1011.1
20260906060352 23 177 0.0 0.0 0.00 0.00 0.00 99 1011.1
20260906055847 23 195 0.0 0.0 0.00 0.00 0.00 99 1011.4
20260906055343 23 195 0.0 0.0 0.00 0.00 0.00 99 1011.5
20260906054838 24 195 0.0 0.0 0.00 0.00 0.00 99 1011.3
20260906054333 24 195 0.0 0.0 0.00 0.00 0.00 99 1011.1
20260906053829 24 195 0.0 0.0 0.00 0.00 0.00 99 1011.3
20260906053325 24 195 0.0 0.0 0.00 0.00 0.00 99 1011.3
20260906052820 24 195 0.0 0.0 0.00 0.00 0.00 99 1011.5
20260906052316 24 195 0.0 0.0 0.00 0.00 0.00 99 1011.5
20260906051813 24 195 0.0 0.0 0.00 0.00 0.00 99 1011.6
20260906051313 24 195 0.0 0.0 0.00 0.00 0.00 99 1011.6
20260906050808 24 195 0.0 0.0 0.00 0.00 0.00 99 1011.5
20260906050303 24 195 0.0 0.0 0.00 0.00 0.00 99 1011.5
20260906045802 24 195 0.0 0.0 0.00 0.00 0.00 99 1011.4
20260906045256 24 195 0.0 0.0 0.00 0.00 0.00 99 1011.6
20260906044753 25 195 0.0 0.0 0.00 0.00 0.00 99 1011.4
20260906044247 25 195 0.0 0.0 0.00 0.00 0.00 99 1011.8
20260906043743 25 195 0.0 0.0 0.00 0.00 0.00 98 1011.9
20260906043239 25 195 0.0 0.0 0.00 0.00 0.00 98 1012.0
20260906042739 25 195 0.0 0.0 0.00 0.00 0.00 98 1012.1
20260906042238 25 195 0.0 0.0 0.00 0.00 0.00 98 1011.7
20260906041733 25 195 0.0 0.0 0.00 0.00 0.00 97 1011.7
20260906041228 25 195 0.0 0.0 0.00 0.00 0.00 97 1011.6
20260906040724 25 195 0.0 0.0 0.00 0.00 0.00 96 1011.7
20260906040219 25 195 0.0 0.0 0.00 0.00 0.00 96 1011.4
20260906035715 25 195 0.0 0.0 0.00 0.00 0.00 96 1011.7
20260906035211 25 195 0.0 0.0 0.00 0.00 0.00 96 1011.8
20260906034705 25 195 0.0 0.0 0.00 0.00 0.00 96 1012.0
20260906034200 25 195 0.0 0.0 0.00 0.00 0.00 96 1011.9
20260906033656 25 195 0.0 0.0 0.00 0.00 0.00 95 1011.8
20260906033156 25 195 0.0 0.0 0.00 0.00 0.00 95 1011.9
20260906032651 25 195 0.0 0.0 0.00 0.00 0.00 95 1011.7
20260906032146 25 195 0.0 0.0 0.00 0.00 0.00 95 1011.6
20260906031642 26 195 0.0 0.0 0.00 0.00 0.00 94 1011.8
20260906031137 26 195 0.0 0.0 0.00 0.00 0.00 94 1011.4
20260906030636 26 195 0.0 0.0 0.00 0.00 0.00 93 1011.6
20260906030132 26 194 0.0 0.0 0.00 0.00 0.00 92 1011.7
20260906025630 26 193 0.0 0.0 0.00 0.00 0.00 92 1011.3
20260906025130 26 194 0.0 0.0 0.00 0.00 0.00 92 1011.4
20260906024624 26 194 0.0 0.0 0.00 0.00 0.00 91 1011.3
20260906024119 26 246 0.0 0.0 0.00 0.00 0.00 90 1011.3
20260906023609 27 291 0.0 0.0 0.00 0.00 0.00 88 1011.4
20260906023104 27 182 0.0 0.0 0.00 0.00 0.00 89 1011.4
20260906022559 27 162 0.0 0.0 0.00 0.00 0.00 87 1011.5
20260906022055 27 151 0.0 0.0 0.00 0.00 0.00 85 1011.5
20260906021550 27 177 0.0 0.0 0.00 0.00 0.00 87 1011.6
20260906021048 27 176 0.0 0.0 0.00 0.00 0.00 87 1011.3
20260906020543 27 176 0.0 0.0 0.00 0.00 0.00 84 1011.0
20260906020043 28 149 1.6 1.6 0.00 0.00 0.00 84 1010.9
20260906015542 28 153 0.0 0.0 0.00 0.00 0.00 84 1011.0
20260906015042 28 251 0.0 0.0 0.00 0.00 0.00 84 1010.9
20260906014536 28 182 0.0 0.0 0.00 0.00 0.00 86 1010.6
20260906014032 27 245 0.0 0.0 0.00 0.00 0.00 87 1010.6
20260906013527 27 237 0.0 0.0 0.00 0.00 0.00 88 1010.5
20260906013023 27 237 0.0 0.0 0.00 0.00 0.00 87 1010.5
20260906012518 27 237 0.0 0.0 0.00 0.00 0.00 86 1010.6
20260906012017 28 235 0.0 0.0 0.00 0.00 0.00 86 1010.4
20260906011514 28 215 0.0 0.0 0.00 0.00 0.00 84 1010.5
20260906011013 28 187 0.0 0.0 0.00 0.00 0.00 84 1010.3
20260906010509 28 179 0.0 0.0 0.00 0.00 0.00 82 1010.3
20260906010006 28 205 0.0 0.0 0.00 0.00 0.00 85 1010.4
20260906005504 28 211 0.0 0.0 0.00 0.00 0.00 85 1010.2
20260906005003 28 208 0.0 0.0 0.00 0.00 0.00 85 1010.1
20260906004457 29 213 0.0 1.6 0.00 0.00 0.00 82 1010.1
20260906003952 29 196 1.6 1.6 0.00 0.00 0.00 81 1010.3
20260906003448 28 138 1.6 3.2 0.00 0.00 0.00 80 1009.9
20260906002943 28 231 0.0 0.0 0.00 0.00 0.00 85 1009.9
20260906002443 28 231 0.0 0.0 0.00 0.00 0.00 84 1009.8
20260906001938 28 231 0.0 0.0 0.00 0.00 0.00 83 1009.9
20260906001434 28 231 0.0 1.6 0.00 0.00 0.00 83 1010.0
20260906000928 29 232 1.6 1.6 0.00 0.00 0.00 82 1009.8
20260906000425 29 231 0.0 0.0 0.00 0.00 0.00 82 1010.1
20260905235918 29 232 1.6 1.6 0.00 0.00 0.00 81 1009.7
20260905235413 30 232 1.6 1.6 0.00 0.00 0.00 81 1009.4
20260905234908 30 232 1.6 1.6 0.00 0.00 0.00 80 1009.9
20260905234403 30 232 1.6 1.6 0.00 0.00 0.00 78 1009.9
20260905233858 31 232 1.6 1.6 0.00 0.00 0.00 76 1009.9
20260905233353 31 232 1.6 1.6 0.00 0.00 0.00 75 1010.0
20260905232852 31 232 1.6 1.6 0.00 0.00 0.00 73 1009.7
20260905232349 32 233 1.6 1.6 0.00 0.00 0.00 70 1009.8
20260905231844 33 177 0.0 0.0 0.00 0.00 0.00 66 1009.5
20260905231338 33 239 1.6 1.6 0.00 0.00 0.00 68 1009.5
20260905230835 34 243 3.2 3.2 0.00 0.00 0.00 65 1009.8
20260905230333 35 233 1.6 3.2 0.00 0.00 0.00 62 1009.5
20260905225832 35 212 1.6 1.6 0.00 0.00 0.00 59 1009.2
20260905225327 36 206 1.6 1.6 0.00 0.00 0.00 55 1009.5
20260905224821 36 61 1.6 3.2 0.00 0.00 0.00 50 1009.4
20260905224317 35 162 3.2 3.2 0.00 0.00 0.00 51 1009.4
20260905223812 36 243 3.2 3.2 0.00 0.00 0.00 55 1009.5
20260905223310 36 174 0.0 1.6 0.00 0.00 0.00 55 1009.2
20260905222805 35 316 3.2 3.2 0.00 0.00 0.00 52 1009.3
20260905222306 36 273 1.6 1.6 0.00 0.00 0.00 58 1009.5
20260905221800 37 225 4.8 4.8 0.00 0.00 0.00 49 1009.1
20260905221256 37 150 4.8 4.8 0.00 0.00 0.00 47 1009.5
20260905220752 37 193 0.0 1.6 0.00 0.00 0.00 51 1009.2
20260905220248 37 175 1.6 1.6 0.00 0.00 0.00 46 1009.5
20260905215747 37 36 4.8 4.8 0.00 0.00 0.00 47 1009.3
20260905215243 37 233 1.6 1.6 0.00 0.00 0.00 46 1009.4
20260905214739 37 238 1.6 1.6 0.00 0.00 0.00 48 1009.8
20260905214235 36 194 1.6 1.6 0.00 0.00 0.00 49 1009.7
20260905213730 35 219 0.0 0.0 0.00 0.00 0.00 51 1009.7
20260905213226 36 240 0.0 0.0 0.00 0.00 0.00 53 1009.9
20260905212721 36 226 1.6 1.6 0.00 0.00 0.00 52 1010.1
20260905212219 36 143 0.0 1.6 0.00 0.00 0.00 45 1010.0
20260905211714 37 151 3.2 3.2 0.00 0.00 0.00 43 1010.0
20260905211209 38 81 4.8 8.0 0.00 0.00 0.00 43 1010.1
20260905210706 38 37 4.8 8.0 0.00 0.00 0.00 43 1010.2
20260905210205 38 227 1.6 1.6 0.00 0.00 0.00 45 1010.1
20260905205704 37 77 3.2 3.2 0.00 0.00 0.00 46 1010.1
20260905205159 36 239 1.6 1.6 0.00 0.00 0.00 54 1010.2
20260905204658 36 117 0.0 1.6 0.00 0.00 0.00 48 1010.3
20260905204153 37 62 4.8 4.8 0.00 0.00 0.00 47 1010.2
20260905203648 37 98 3.2 3.2 0.00 0.00 0.00 47 1010.3
20260905203144 38 108 3.2 3.2 0.00 0.00 0.00 46 1010.3
20260905202639 38 61 4.8 4.8 0.00 0.00 0.00 46 1010.4
20260905202134 37 32 3.2 3.2 0.00 0.00 0.00 46 1010.4
20260905201630 37 152 1.6 1.6 0.00 0.00 0.00 46 1010.4
20260905201129 38 102 3.2 4.8 0.00 0.00 0.00 46 1010.5
20260905200625 38 167 3.2 4.8 0.00 0.00 0.00 44 1010.4
20260905200121 37 168 0.0 1.6 0.00 0.00 0.00 46 1010.6
20260905195619 37 78 3.2 3.2 0.00 0.00 0.00 46 1010.8
20260905195114 37 358 4.8 4.8 0.00 0.00 0.00 45 1010.6
20260905194608 37 340 4.8 4.8 0.00 0.00 0.00 48 1010.8
20260905194108 37 144 0.0 0.0 0.00 0.00 0.00 47 1011.1
20260905193602 37 41 9.7 12.9 0.00 0.00 0.00 47 1010.8
20260905193058 37 92 4.8 8.0 0.00 0.00 0.00 46 1010.8
20260905192554 37 68 4.8 4.8 0.00 0.00 0.00 47 1011.2
20260905192050 37 86 3.2 3.2 0.00 0.00 0.00 48 1011.1
20260905191548 36 78 1.6 3.2 0.00 0.00 0.00 50 1011.3
20260905191047 36 42 4.8 4.8 0.00 0.00 0.00 50 1011.4
20260905190546 37 48 11.3 12.9 0.00 0.00 0.00 49 1011.6
20260905190045 36 21 8.0 11.3 0.00 0.00 0.00 50 1011.7
20260905185545 37 311 6.4 9.7 0.00 0.00 0.00 50 1011.6
20260905185044 37 134 1.6 3.2 0.00 0.00 0.00 47 1011.6
20260905184538 37 222 4.8 4.8 0.00 0.00 0.00 48 1011.5
20260905184037 37 276 3.2 3.2 0.00 0.00 0.00 49 1011.9
20260905183532 37 59 9.7 11.3 0.00 0.00 0.00 48 1011.9
20260905183027 37 126 4.8 4.8 0.00 0.00 0.00 48 1011.8
20260905182526 37 14 3.2 4.8 0.00 0.00 0.00 49 1012.0
20260905182021 37 133 3.2 3.2 0.00 0.00 0.00 48 1012.1
20260905181515 36 137 3.2 3.2 0.00 0.00 0.00 50 1012.4
20260905181015 36 158 1.6 3.2 0.00 0.00 0.00 49 1012.4
20260905180510 36 207 3.2 3.2 0.00 0.00 0.00 51 1012.4
20260905180005 36 127 4.8 8.0 0.00 0.00 0.00 50 1012.3
20260905175504 36 37 4.8 8.0 0.00 0.00 0.00 50 1012.3
20260905175000 36 33 9.7 14.5 0.00 0.00 0.00 49 1012.4
20260905174455 36 64 1.6 3.2 0.00 0.00 0.00 51 1012.5
20260905173951 35 30 4.8 4.8 0.00 0.00 0.00 53 1012.5
20260905173448 35 80 1.6 1.6 0.00 0.00 0.00 55 1012.7
20260905172943 36 22 3.2 4.8 0.00 0.00 0.00 52 1012.8
20260905172441 36 74 6.4 8.0 0.00 0.00 0.00 51 1012.9
20260905171937 37 174 6.4 9.7 0.00 0.00 0.00 50 1012.7
20260905171433 36 236 1.6 4.8 0.00 0.00 0.00 52 1012.8
20260905170929 36 100 3.2 3.2 0.00 0.00 0.00 54 1013.1
20260905170425 36 172 4.8 8.0 0.00 0.00 0.00 51 1013.1
20260905165924 36 156 0.0 0.0 0.00 0.00 0.00 52 1013.2
20260905165419 36 45 8.0 9.7 0.00 0.00 0.00 52 1013.3
20260905164914 36 99 0.0 1.6 0.00 0.00 0.00 55 1013.1
20260905164409 35 70 1.6 3.2 0.00 0.00 0.00 56 1013.1
20260905163904 35 78 3.2 3.2 0.00 0.00 0.00 57 1013.1
20260905163401 35 74 8.0 11.3 0.00 0.00 0.00 56 1013.0
20260905162857 36 74 3.2 3.2 0.00 0.00 0.00 56 1013.3
20260905162355 35 67 3.2 4.8 0.00 0.00 0.00 57 1013.0
20260905161850 35 48 4.8 4.8 0.00 0.00 0.00 57 1013.7
20260905161349 36 79 3.2 3.2 0.00 0.00 0.00 57 1013.5
20260905160848 36 125 1.6 1.6 0.00 0.00 0.00 57 1013.5
20260905160342 35 35 3.2 3.2 0.00 0.00 0.00 60 1013.6
20260905155837 34 63 4.8 4.8 0.00 0.00 0.00 63 1013.7
20260905155336 33 264 4.8 4.8 0.00 0.00 0.00 66 1013.5
20260905154830 33 259 6.4 8.0 0.00 0.00 0.00 66 1013.6
20260905154326 33 233 4.8 4.8 0.00 0.00 0.00 67 1013.4
20260905153821 33 241 4.8 4.8 0.00 0.00 0.00 65 1013.6
20260905153318 34 229 0.0 0.0 0.00 0.00 0.00 70 1013.7
20260905152812 33 177 0.0 0.0 0.00 0.00 0.00 68 1013.8
20260905152311 33 239 6.4 8.0 0.00 0.00 0.00 70 1013.5
20260905151806 33 237 3.2 3.2 0.00 0.00 0.00 70 1013.9
20260905151301 33 73 3.2 4.8 0.00 0.00 0.00 71 1013.8
20260905150756 33 192 0.0 0.0 0.00 0.00 0.00 69 1013.6
20260905150256 32 189 3.2 3.2 0.00 0.00 0.00 73 1013.6
20260905145753 32 164 1.6 1.6 0.00 0.00 0.00 73 1013.7
20260905145248 32 11 1.6 3.2 0.00 0.00 0.00 72 1013.6
20260905144746 32 89 1.6 1.6 0.00 0.00 0.00 74 1013.8
20260905144242 33 104 1.6 1.6 0.00 0.00 0.00 71 1013.6
20260905143736 31 113 0.0 1.6 0.00 0.00 0.00 76 1013.8
20260905143235 31 74 1.6 3.2 0.00 0.00 0.00 77 1013.9
20260905142733 31 26 3.2 3.2 0.00 0.00 0.00 77 1013.6
20260905142228 31 65 0.0 0.0 0.00 0.00 0.00 78 1013.6
20260905141724 31 68 0.0 0.0 0.00 0.00 0.00 79 1013.9
20260905141219 30 127 0.0 0.0 0.00 0.00 0.00 80 1014.1
20260905140715 30 47 0.0 0.0 0.00 0.00 0.00 81 1013.9
20260905140209 30 107 0.0 0.0 0.00 0.00 0.00 82 1013.9
20260905135704 30 98 0.0 0.0 0.00 0.00 0.00 84 1013.9
20260905135200 29 103 0.0 0.0 0.00 0.00 0.00 84 1014.1
20260905134659 29 94 0.0 0.0 0.00 0.00 0.00 85 1013.9
20260905134158 28 134 0.0 0.0 0.00 0.00 0.00 86 1013.8
20260905133653 28 105 0.0 0.0 0.00 0.00 0.00 88 1013.9
20260905133148 28 115 0.0 0.0 0.00 0.00 0.00 88 1013.9
20260905132647 28 109 0.0 0.0 0.00 0.00 0.00 88 1013.9
20260905132143 27 110 0.0 0.0 0.00 0.00 0.00 89 1014.1
20260905131637 27 110 0.0 0.0 0.00 0.00 0.00 90 1014.0
20260905131132 27 111 0.0 0.0 0.00 0.00 0.00 90 1013.9
20260905130627 26 110 0.0 0.0 0.00 0.00 0.00 91 1014.0
20260905130126 26 114 0.0 0.0 0.00 0.00 0.00 93 1014.0
20260905125621 25 123 0.0 0.0 0.00 0.00 0.00 94 1014.0
20260905125117 25 134 0.0 0.0 0.00 0.00 0.00 95 1014.1
20260905124613 24 135 0.0 0.0 0.00 0.00 0.00 99 1014.1
20260905124109 23 136 0.0 0.0 0.00 0.00 0.00 99 1014.2
20260905123603 23 136 0.0 0.0 0.00 0.00 0.00 99 1014.3
20260905123101 22 136 0.0 0.0 0.00 0.00 0.00 99 1014.2
20260905122600 22 136 0.0 0.0 0.00 0.00 0.00 99 1014.1
20260905122055 22 141 0.0 0.0 0.00 0.00 0.00 99 1014.0
20260905121550 22 141 0.0 0.0 0.00 0.00 0.00 99 1013.8
20260905121045 22 142 0.0 0.0 0.00 0.00 0.00 99 1013.9
20260905120544 22 142 0.0 0.0 0.00 0.00 0.00 99 1013.9
20260905120040 21 142 0.0 0.0 0.00 0.00 0.00 99 1013.6
20260905115538 21 142 0.0 0.0 0.00 0.00 0.00 99 1013.7
20260905115033 21 141 0.0 0.0 0.00 0.00 0.00 99 1013.8
20260905114533 21 141 0.0 0.0 0.00 0.00 0.00 99 1013.5
20260905114032 21 142 0.0 0.0 0.00 0.00 0.00 99 1013.7
20260905113527 21 143 0.0 0.0 0.00 0.00 0.00 99 1013.7
20260905113022 21 111 0.0 0.0 0.00 0.00 0.00 99 1013.3
20260905112517 21 145 0.0 0.0 0.00 0.00 0.00 99 1013.3
20260905112013 21 146 0.0 0.0 0.00 0.00 0.00 99 1013.2
20260905111507 21 145 0.0 0.0 0.00 0.00 0.00 99 1013.3
20260905111001 21 145 0.0 0.0 0.00 0.00 0.00 99 1013.0
20260905110500 21 145 0.0 0.0 0.00 0.00 0.00 99 1013.1
20260905105954 21 145 0.0 0.0 0.00 0.00 0.00 99 1013.1
20260905105449 22 145 0.0 0.0 0.00 0.00 0.00 99 1013.0
20260905104948 22 145 0.0 0.0 0.00 0.00 0.00 99 1013.0
20260905104444 22 145 0.0 0.0 0.00 0.00 0.00 99 1013.2
20260905103939 22 145 0.0 0.0 0.00 0.00 0.00 99 1013.0
20260905103435 22 145 0.0 0.0 0.00 0.00 0.00 99 1013.0
20260905102931 22 145 0.0 0.0 0.00 0.00 0.00 99 1013.1
20260905102427 22 145 0.0 0.0 0.00 0.00 0.00 99 1013.1
20260905101922 22 144 0.0 0.0 0.00 0.00 0.00 99 1013.2
20260905101420 22 144 0.0 0.0 0.00 0.00 0.00 99 1012.9
20260905100915 22 144 0.0 0.0 0.00 0.00 0.00 99 1012.7
20260905100411 22 146 0.0 0.0 0.00 0.00 0.00 99 1012.9
20260905095909 22 146 0.0 0.0 0.00 0.00 0.00 99 1013.1
20260905095358 22 146 0.0 0.0 0.00 0.00 0.00 99 1013.0
20260905094853 22 146 0.0 0.0 0.00 0.00 0.00 99 1012.9
20260905094349 22 145 0.0 0.0 0.00 0.00 0.00 99 1012.8
20260905093847 22 130 0.0 0.0 0.00 0.00 0.00 99 1012.8
20260905093343 22 158 0.0 0.0 0.00 0.00 0.00 99 1012.7
20260905092839 22 159 0.0 0.0 0.00 0.00 0.00 99 1013.0
20260905092339 22 159 0.0 0.0 0.00 0.00 0.00 99 1012.8
20260905091833 22 159 0.0 0.0 0.00 0.00 0.00 99 1012.7
20260905091328 22 159 0.0 0.0 0.00 0.00 0.00 99 1012.9
20260905090826 22 159 0.0 0.0 0.00 0.00 0.00 99 1012.7
20260905090322 22 159 0.0 0.0 0.00 0.00 0.00 99 1012.8
20260905085821 22 160 0.0 0.0 0.00 0.00 0.00 99 1012.8
20260905085316 22 158 0.0 0.0 0.00 0.00 0.00 99 1012.8
20260905084812 22 158 0.0 0.0 0.00 0.00 0.00 99 1012.8
20260905084311 22 158 0.0 0.0 0.00 0.00 0.00 99 1013.0
20260905083806 22 158 0.0 0.0 0.00 0.00 0.00 99 1012.8
20260905083302 22 158 0.0 0.0 0.00 0.00 0.00 99 1012.7
20260905082752 22 158 0.0 0.0 0.00 0.00 0.00 99 1012.5